Walla Walla, WA

7:17 PM PDT on April 29, 2017 (GMT -0700)
Walla Walla Regional

Weather History for KALW - February, 2014

Change the Weather History Date:

Sunday, February 16, 2014

  Actual Average Record
Temperature  
Mean Temperature 46 °F 39 °F  
Max Temperature 52 °F 46 °F 67 °F (1994)
Min Temperature 39 °F 32 °F 0 °F (1956)
Degree Days  
Heating Degree Days 20 26  
Month to date heating degree days 430  
Since 1 July heating degree days 3482  
Cooling Degree Days 0 0  
Month to date cooling degree days 0  
Year to date cooling degree days 0  
Moisture  
Dew Point 29 °F    
Average Humidity 54    
Maximum Humidity 80    
Minimum Humidity 33    
Precipitation  
Precipitation 0.00 in 0.06 in 0.74 in (1976)
Month to date precipitation 0.97  
Year to date precipitation 3.50  
Snow  
Snow 0.00 in 0.10 in 1.20 in (1959)
Month to date snowfall 1.7  
Year to date snowfall 3.6  
Since 1 July snowfall 9.3  
Snow Depth -    
Sea Level Pressure  
Sea Level Pressure 29.94 in    
Wind  
Wind Speed 14 mph (SSW)    
Max Wind Speed 22 mph    
Max Gust Speed 31 mph    
Visibility 10 miles    
Events      
T = Trace of Precipitation, MM = Missing Value Source: NWS Daily Summary

Daily Weather History Graph

Daily Weather History Graph

Search for Another Location

Airport or City:

Trip Planner

Search our weather history database for the weather conditions in past years. The results will help you decide how hot, cold, wet, or windy it might be!

Date:

Astronomy

Feb. 16, 2014 Rise Set
Actual Time 6:54 AM PST 5:20 PM PST
Civil Twilight 6:23 AM PST 5:51 PM PST
Nautical Twilight 5:48 AM PST 6:26 PM PST
Astronomical Twilight 5:13 AM PST 7:01 PM PST
Moon 7:31 PM PST (2/16) 7:18 AM PST (2/16)
Length of Visible Light 11h 28m
Length of Day
10h 26m
Full, 97% of the Moon is Illuminated
Feb 16
Full
Feb 22
Last Quarter
Mar 1
New
Mar 8
First Quarter
Mar 16
Full

Hourly Weather History & Observations

Time (PST) Temp. Windchill Dew Point Humidity Pressure Visibility Wind Dir Wind Speed Gust Speed Precip Events Conditions
12:53 AM 43.0 °F 36.4 °F 37.0 °F 80% 29.76 in 10.0 mi South 12.7 mph - N/A   Overcast
1:53 AM 42.1 °F 36.1 °F 34.0 °F 73% 29.78 in 10.0 mi SSW 10.4 mph - N/A   Scattered Clouds
2:53 AM 39.9 °F 32.9 °F 32.0 °F 73% 29.81 in 10.0 mi South 11.5 mph - N/A   Clear
3:53 AM 39.9 °F 33.9 °F 30.0 °F 68% 29.82 in 10.0 mi SSE 9.2 mph - N/A   Clear
4:53 AM 41.0 °F 33.9 °F 30.0 °F 65% 29.83 in 10.0 mi SSW 12.7 mph - N/A   Overcast
5:53 AM 41.0 °F 33.1 °F 30.0 °F 65% 29.85 in 10.0 mi SW 15.0 mph - N/A   Scattered Clouds
6:53 AM 41.0 °F 33.5 °F 30.0 °F 65% 29.89 in 10.0 mi SW 13.8 mph - N/A   Mostly Cloudy
7:53 AM 41.0 °F 33.5 °F 30.0 °F 65% 29.94 in 10.0 mi SSW 13.8 mph - N/A   Mostly Cloudy
8:53 AM 42.1 °F 33.3 °F 30.0 °F 62% 29.96 in 10.0 mi SSW 19.6 mph 24.2 mph N/A   Mostly Cloudy
9:53 AM 43.0 °F 34.5 °F 30.9 °F 62% 29.98 in 10.0 mi SSW 19.6 mph - N/A   Scattered Clouds
10:53 AM 46.0 °F 38.8 °F 30.9 °F 56% 30.01 in 10.0 mi WSW 18.4 mph - N/A   Overcast
11:53 AM 48.0 °F - 32.0 °F 54% 30.04 in 10.0 mi WSW 20.7 mph 29.9 mph N/A   Mostly Cloudy
12:53 PM 48.0 °F - 30.0 °F 50% 30.05 in 10.0 mi WSW 20.7 mph 29.9 mph N/A   Mostly Cloudy
1:53 PM 48.9 °F - 30.0 °F 48% 30.06 in 10.0 mi SW 18.4 mph - N/A   Mostly Cloudy
2:53 PM 50.0 °F - 28.9 °F 44% 30.07 in 10.0 mi WSW 16.1 mph 24.2 mph N/A   Scattered Clouds
3:53 PM 48.9 °F - 30.0 °F 48% 30.06 in 10.0 mi SW 11.5 mph - N/A   Clear
4:53 PM 46.0 °F 42.5 °F 30.9 °F 56% 30.04 in 10.0 mi South 6.9 mph - N/A   Clear
5:53 PM 46.0 °F 42.5 °F 28.9 °F 51% 30.02 in 10.0 mi South 6.9 mph - N/A   Clear
6:53 PM 48.0 °F - 27.0 °F 44% 30.00 in 10.0 mi South 10.4 mph - N/A   Overcast
7:53 PM 50.0 °F - 24.1 °F 36% 29.95 in 10.0 mi South 21.9 mph - N/A   Clear
8:53 PM 51.1 °F - 23.0 °F 33% 29.93 in 10.0 mi South 21.9 mph 31.1 mph N/A   Clear
9:53 PM 52.0 °F - 24.1 °F 34% 29.91 in 10.0 mi South 19.6 mph 31.1 mph N/A   Clear
10:53 PM 51.1 °F - 25.0 °F 36% 29.88 in 10.0 mi South 21.9 mph 29.9 mph N/A   Mostly Cloudy
11:53 PM 52.0 °F - 24.1 °F 34% 29.86 in 10.0 mi South 21.9 mph 31.1 mph N/A   Overcast